Location: Hochstatterhof
(48.7256°N, 10.3487°E)
Time: 01:56:57
(UTC+00:00)

Cosmos 1867 - Pass Details

Date: 26 September 2023
Orbit: 774 x 800 km, 65.0° (Epoch: 04 December)

Event Time Altitude Azimuth Distance (km) Brightness Sun altitude
Rises 04:12:30 0° 321° (NW) 3,314 6.5 -10.3°
Reaches altitude 10° 04:14:56 10° 323° (NW) 2,383 5.8 -9.9°
Maximum altitude 04:20:26 81° 50° (NE) 816 3.7 -9.0°
Drops below altitude 10° 04:25:55 10° 139° (SE) 2,370 6.5 -8.1°
Sets 04:28:20 0° 140° (SE) 3,295 7.3 -7.7°
